Year,Month,Day,Hour,Minute,Value (Times are PST for temperature in C)
2016,09,30,00,00,9.20
2016,09,30,00,01,9.20
2016,09,30,00,02,9.20
2016,09,30,00,03,9.20
2016,09,30,00,04,9.20
2016,09,30,00,05,9.20
2016,09,30,00,06,9.20
2016,09,30,00,07,9.10
2016,09,30,00,08,9.10
2016,09,30,00,09,9.10
2016,09,30,00,26,8.80
2016,09,30,00,27,8.80
2016,09,30,00,28,8.80
2016,09,30,00,29,8.80
2016,09,30,00,30,8.70
2016,09,30,00,31,8.70
2016,09,30,00,32,8.70
2016,09,30,00,33,8.70
2016,09,30,00,34,8.70
2016,09,30,00,35,8.70
2016,09,30,00,36,8.70
2016,09,30,00,37,8.70
2016,09,30,00,38,8.70
2016,09,30,00,39,8.70
2016,09,30,00,41,8.60
2016,09,30,00,42,8.60
2016,09,30,00,43,8.60
2016,09,30,00,44,8.60
2016,09,30,00,46,8.50
2016,09,30,00,47,8.50
2016,09,30,00,48,8.50
2016,09,30,00,49,8.50
2016,09,30,00,51,8.50
2016,09,30,00,52,8.50
2016,09,30,00,53,8.40
2016,09,30,00,54,8.40
2016,09,30,00,56,8.40
2016,09,30,00,57,8.40
2016,09,30,00,58,8.30
2016,09,30,00,59,8.30
2016,09,30,01,01,8.20
2016,09,30,01,02,8.20
2016,09,30,01,03,8.20
2016,09,30,01,04,8.20
2016,09,30,01,06,8.20
2016,09,30,01,07,8.30
2016,09,30,01,08,8.30
2016,09,30,01,09,8.30
2016,09,30,01,11,8.40
2016,09,30,01,12,8.40
2016,09,30,01,13,8.40
2016,09,30,01,14,8.40
2016,09,30,01,16,8.40
2016,09,30,01,17,8.40
2016,09,30,01,18,8.40
2016,09,30,01,19,8.40
2016,09,30,01,21,8.40
2016,09,30,01,22,8.40
2016,09,30,01,23,8.40
2016,09,30,01,24,8.40
2016,09,30,01,26,8.40
2016,09,30,01,27,8.40
2016,09,30,01,28,8.40
2016,09,30,01,29,8.40
2016,09,30,01,31,8.40
2016,09,30,01,32,8.40
2016,09,30,01,33,8.40
2016,09,30,01,34,8.40
2016,09,30,01,36,8.40
2016,09,30,01,37,8.40
2016,09,30,01,38,8.40
2016,09,30,01,39,8.40
2016,09,30,01,41,8.40
2016,09,30,01,42,8.40
2016,09,30,01,43,8.40
2016,09,30,01,44,8.50
2016,09,30,01,46,8.50
2016,09,30,01,47,8.50
2016,09,30,01,48,8.50
2016,09,30,01,49,8.40
2016,09,30,01,51,8.40
2016,09,30,01,52,8.40
2016,09,30,01,53,8.40
2016,09,30,01,54,8.40
2016,09,30,01,56,8.40
2016,09,30,01,57,8.40
2016,09,30,01,58,8.40
2016,09,30,01,59,8.30
2016,09,30,02,01,8.30
2016,09,30,02,02,8.30
2016,09,30,02,03,8.30
2016,09,30,02,04,8.20
2016,09,30,02,06,8.20
2016,09,30,02,07,8.20
2016,09,30,02,08,8.20
2016,09,30,02,09,8.20
2016,09,30,02,11,8.20
2016,09,30,02,12,8.20
2016,09,30,02,13,8.20
2016,09,30,02,14,8.20
2016,09,30,02,15,8.20
2016,09,30,02,16,8.20
2016,09,30,02,17,8.20
2016,09,30,02,18,8.20
2016,09,30,02,19,8.10
2016,09,30,02,20,8.20
2016,09,30,02,21,8.10
2016,09,30,02,22,8.10
2016,09,30,02,23,8.10
2016,09,30,02,24,8.10
2016,09,30,02,25,8.10
2016,09,30,02,26,8.20
2016,09,30,02,27,8.20
2016,09,30,02,28,8.20
2016,09,30,02,29,8.20
2016,09,30,02,30,8.20
2016,09,30,02,31,8.20
2016,09,30,02,32,8.20
2016,09,30,02,33,8.20
2016,09,30,02,34,8.20
2016,09,30,02,35,8.20
2016,09,30,02,36,8.20
2016,09,30,02,37,8.20
2016,09,30,02,38,8.20
2016,09,30,02,39,8.10
2016,09,30,02,40,8.10
2016,09,30,02,41,8.10
2016,09,30,02,42,8.10
2016,09,30,02,43,8.10
2016,09,30,02,44,8.10
2016,09,30,02,45,8.10
2016,09,30,02,46,8.10
2016,09,30,02,47,8.10
2016,09,30,02,48,8.10
2016,09,30,02,49,8.10
2016,09,30,02,50,8.10
2016,09,30,02,51,8.10
2016,09,30,02,52,8.10
2016,09,30,02,53,8.00
2016,09,30,02,54,8.00
2016,09,30,02,55,8.00
2016,09,30,02,56,8.00
2016,09,30,02,57,7.90
2016,09,30,02,58,7.90
2016,09,30,02,59,7.90
2016,09,30,03,00,8.00
2016,09,30,03,01,8.00
2016,09,30,03,02,8.00
2016,09,30,03,03,8.00
2016,09,30,03,04,8.00
2016,09,30,03,05,8.00
2016,09,30,03,06,8.00
2016,09,30,03,07,8.00
2016,09,30,03,08,8.10
2016,09,30,03,09,8.10
2016,09,30,03,10,8.10
2016,09,30,03,11,8.20
2016,09,30,03,12,8.20
2016,09,30,03,13,8.20
2016,09,30,03,14,8.20
2016,09,30,03,15,8.20
2016,09,30,03,16,8.20
2016,09,30,03,17,8.20
2016,09,30,03,18,8.20
2016,09,30,03,19,8.20
2016,09,30,03,20,8.20
2016,09,30,03,21,8.20
2016,09,30,03,22,8.20
2016,09,30,03,23,8.10
2016,09,30,03,24,8.10
2016,09,30,03,26,8.10
2016,09,30,03,27,8.10
2016,09,30,03,28,8.10
2016,09,30,03,29,8.10
2016,09,30,03,31,8.10
2016,09,30,03,32,8.10
2016,09,30,03,33,8.00
2016,09,30,03,34,8.00
2016,09,30,03,36,8.00
2016,09,30,03,37,8.00
2016,09,30,03,38,8.00
2016,09,30,03,39,8.10
2016,09,30,03,41,8.10
2016,09,30,03,42,8.10
2016,09,30,03,43,8.10
2016,09,30,03,44,8.10
2016,09,30,03,46,8.00
2016,09,30,03,47,8.00
2016,09,30,03,48,8.00
2016,09,30,03,49,8.00
2016,09,30,03,51,8.00
2016,09,30,03,52,8.00
2016,09,30,03,53,8.00
2016,09,30,03,54,8.00
2016,09,30,03,56,8.00
2016,09,30,03,57,8.00
2016,09,30,03,58,8.00
2016,09,30,03,59,8.00
2016,09,30,04,01,8.10
2016,09,30,04,02,8.10
2016,09,30,04,03,8.10
2016,09,30,04,04,8.10
2016,09,30,04,06,8.10
2016,09,30,04,07,8.10
2016,09,30,04,08,8.20
2016,09,30,04,09,8.20
2016,09,30,04,11,8.20
2016,09,30,04,12,8.20
2016,09,30,04,13,8.20
2016,09,30,04,14,8.20
2016,09,30,04,16,8.20
2016,09,30,04,17,8.20
2016,09,30,04,18,8.20
2016,09,30,04,19,8.20
2016,09,30,04,21,8.20
2016,09,30,04,22,8.10
2016,09,30,04,23,8.10
2016,09,30,04,24,8.10
2016,09,30,04,26,8.10
2016,09,30,04,27,8.00
2016,09,30,04,28,8.00
2016,09,30,04,29,8.00
2016,09,30,04,31,8.00
2016,09,30,04,32,7.90
2016,09,30,04,33,7.90
2016,09,30,04,34,7.90
2016,09,30,04,36,7.80
2016,09,30,04,37,7.80
2016,09,30,04,38,7.80
2016,09,30,04,39,7.80
2016,09,30,04,40,7.80
2016,09,30,04,41,7.80
2016,09,30,04,42,7.80
2016,09,30,05,26,7.90
2016,09,30,05,27,7.90
2016,09,30,05,28,8.00
2016,09,30,05,29,8.00
2016,09,30,05,30,8.10
2016,09,30,05,31,8.10
2016,09,30,05,32,8.20
2016,09,30,05,33,8.20
2016,09,30,05,34,8.20
2016,09,30,05,35,8.20
2016,09,30,05,36,8.30
2016,09,30,05,37,8.30
2016,09,30,05,38,8.30
2016,09,30,05,39,8.40
2016,09,30,05,40,8.40
2016,09,30,05,41,8.40
2016,09,30,05,42,8.40
2016,09,30,05,44,8.50
2016,09,30,05,46,8.50
2016,09,30,05,47,8.50
2016,09,30,05,48,8.50
2016,09,30,05,49,8.60
2016,09,30,05,51,8.60
2016,09,30,05,52,8.60
2016,09,30,05,53,8.60
2016,09,30,05,54,8.60
2016,09,30,05,56,8.60
2016,09,30,05,57,8.60
2016,09,30,05,58,8.60
2016,09,30,05,59,8.70
2016,09,30,06,01,8.70
2016,09,30,06,26,9.20
2016,09,30,06,27,9.10
2016,09,30,06,28,9.10
2016,09,30,06,29,9.10
2016,09,30,06,30,9.10
2016,09,30,06,31,9.10
2016,09,30,06,32,9.10
2016,09,30,06,33,9.10
2016,09,30,06,34,9.10
2016,09,30,06,35,9.10
2016,09,30,06,36,9.10
2016,09,30,06,37,9.10
2016,09,30,06,38,9.10
2016,09,30,06,39,9.10
2016,09,30,06,40,9.10
2016,09,30,06,41,9.00
2016,09,30,06,42,9.00
2016,09,30,06,44,9.00
2016,09,30,06,46,9.00
2016,09,30,06,47,9.00
2016,09,30,06,48,8.90
2016,09,30,06,49,8.90
2016,09,30,06,51,8.90
2016,09,30,06,52,8.90
2016,09,30,06,53,8.90
2016,09,30,06,54,8.90
2016,09,30,06,56,8.90
2016,09,30,06,57,8.90
2016,09,30,06,58,8.80
2016,09,30,06,59,8.80
2016,09,30,07,01,8.80
2016,09,30,07,02,8.80
2016,09,30,07,03,8.80
2016,09,30,07,04,8.80
2016,09,30,07,06,8.80
2016,09,30,07,07,8.80
2016,09,30,07,08,8.80
2016,09,30,07,09,8.80
2016,09,30,07,11,8.80
2016,09,30,07,12,8.80
2016,09,30,07,13,8.80
2016,09,30,07,14,8.80
2016,09,30,07,16,8.80
2016,09,30,07,17,8.80
2016,09,30,07,18,8.80
2016,09,30,07,19,8.90
2016,09,30,07,21,8.90
2016,09,30,07,22,8.90
2016,09,30,07,23,8.90
2016,09,30,07,24,8.90
2016,09,30,07,26,8.90
2016,09,30,07,27,8.90
2016,09,30,07,28,8.90
2016,09,30,07,29,8.90
2016,09,30,07,31,8.90
2016,09,30,07,32,8.90
2016,09,30,07,33,8.90
2016,09,30,07,34,8.90
2016,09,30,07,36,8.90
2016,09,30,07,37,8.90
2016,09,30,07,38,8.90
2016,09,30,07,39,8.90
2016,09,30,07,41,8.90
2016,09,30,07,42,8.90
2016,09,30,07,43,8.90
2016,09,30,07,44,8.90
2016,09,30,07,46,8.90
2016,09,30,07,47,8.90
2016,09,30,07,48,8.90
2016,09,30,07,49,8.90
2016,09,30,07,51,9.00
2016,09,30,07,52,9.00
2016,09,30,07,53,9.00
2016,09,30,07,54,9.00
2016,09,30,07,56,9.00
2016,09,30,07,57,9.00
2016,09,30,07,58,9.00
2016,09,30,07,59,9.00
2016,09,30,08,01,9.00
2016,09,30,08,02,9.00
2016,09,30,08,03,9.00
2016,09,30,08,04,9.00
2016,09,30,08,06,8.90
2016,09,30,08,07,8.90
2016,09,30,08,08,8.90
2016,09,30,08,09,8.90
2016,09,30,08,10,8.90
2016,09,30,08,11,8.90
2016,09,30,08,12,8.90
2016,09,30,08,13,8.90
2016,09,30,08,14,8.90
2016,09,30,08,15,8.90
2016,09,30,08,16,8.90
2016,09,30,08,17,8.90
2016,09,30,08,18,8.90
2016,09,30,08,19,8.90
2016,09,30,08,20,8.90
2016,09,30,08,21,8.90
2016,09,30,08,22,9.00
2016,09,30,08,23,9.00
2016,09,30,08,24,9.00
2016,09,30,08,25,9.00
2016,09,30,08,26,9.00
2016,09,30,08,27,9.00
2016,09,30,08,28,9.00
2016,09,30,08,29,9.00
2016,09,30,08,30,9.00
2016,09,30,08,31,9.00
2016,09,30,08,32,9.00
2016,09,30,08,33,9.00
2016,09,30,08,34,9.00
2016,09,30,08,35,9.00
2016,09,30,08,36,9.00
2016,09,30,08,37,9.00
2016,09,30,08,38,8.90
2016,09,30,08,39,8.90
2016,09,30,08,40,8.90
2016,09,30,08,41,8.90
2016,09,30,08,42,8.90
2016,09,30,08,43,9.00
2016,09,30,08,44,9.00
2016,09,30,08,45,9.00
2016,09,30,08,46,9.00
2016,09,30,08,47,9.10
2016,09,30,08,48,9.10
2016,09,30,08,49,9.10
2016,09,30,08,50,9.20
2016,09,30,08,51,9.20
2016,09,30,08,52,9.20
2016,09,30,08,53,9.20
2016,09,30,08,54,9.20
2016,09,30,08,55,9.20
2016,09,30,08,56,9.30
2016,09,30,08,57,9.30
2016,09,30,08,58,9.30
2016,09,30,08,59,9.30
2016,09,30,09,00,9.40
2016,09,30,09,01,9.40
2016,09,30,09,02,9.40
2016,09,30,09,03,9.40
2016,09,30,09,04,9.50
2016,09,30,09,05,9.50
2016,09,30,09,06,9.50
2016,09,30,09,07,9.50
2016,09,30,09,08,9.50
2016,09,30,09,09,9.50
2016,09,30,09,10,9.50
2016,09,30,09,11,9.50
2016,09,30,09,12,9.50
2016,09,30,09,13,9.50
2016,09,30,09,14,9.50
2016,09,30,09,15,9.50
2016,09,30,09,16,9.60
2016,09,30,09,17,9.60
2016,09,30,09,18,9.70
2016,09,30,09,19,9.70
2016,09,30,09,20,9.70
2016,09,30,09,21,9.70
2016,09,30,09,22,9.70
2016,09,30,09,23,9.80
2016,09,30,09,24,9.80
2016,09,30,09,25,9.80
2016,09,30,09,26,9.90
2016,09,30,09,27,9.90
2016,09,30,09,28,9.90
2016,09,30,09,29,9.90
2016,09,30,09,31,9.90
2016,09,30,09,32,9.90
2016,09,30,09,33,9.90
2016,09,30,09,34,9.90
2016,09,30,09,36,10.10
2016,09,30,09,37,10.10
2016,09,30,09,38,10.10
2016,09,30,09,39,10.10
2016,09,30,09,41,10.10
2016,09,30,09,42,10.10
2016,09,30,09,43,10.10
2016,09,30,09,44,10.20
2016,09,30,09,46,10.30
2016,09,30,09,47,10.30
2016,09,30,09,48,10.40
2016,09,30,09,49,10.40
2016,09,30,09,51,10.40
2016,09,30,09,52,10.60
2016,09,30,09,53,10.60
2016,09,30,09,54,10.60
2016,09,30,09,56,10.60
2016,09,30,09,57,10.70
2016,09,30,09,58,10.70
2016,09,30,09,59,10.80
2016,09,30,10,01,10.90
2016,09,30,10,02,10.90
2016,09,30,10,03,10.90
2016,09,30,10,04,10.90
2016,09,30,10,06,10.90
2016,09,30,10,07,10.90
2016,09,30,10,08,10.90
2016,09,30,10,09,10.90
2016,09,30,10,11,10.80
2016,09,30,10,12,10.80
2016,09,30,10,13,10.80
2016,09,30,10,14,10.80
2016,09,30,10,16,10.80
2016,09,30,10,17,10.80
2016,09,30,10,18,10.80
2016,09,30,10,19,10.80
2016,09,30,10,21,10.70
2016,09,30,10,22,10.70
2016,09,30,10,23,10.70
2016,09,30,10,24,10.70
2016,09,30,10,26,10.60
2016,09,30,10,27,10.60
2016,09,30,10,28,10.60
2016,09,30,10,29,10.60
2016,09,30,10,31,10.60
2016,09,30,10,32,10.60
2016,09,30,10,33,10.60
2016,09,30,10,34,10.60
2016,09,30,10,36,10.60
2016,09,30,10,37,10.60
2016,09,30,10,38,10.60
2016,09,30,10,39,10.70
2016,09,30,10,41,10.80
2016,09,30,10,42,10.90
2016,09,30,10,43,10.90
2016,09,30,10,44,10.90
2016,09,30,10,46,11.10
2016,09,30,10,47,11.10
2016,09,30,10,48,11.20
2016,09,30,10,49,11.30
2016,09,30,10,50,11.30
2016,09,30,10,51,11.40
2016,09,30,10,53,11.40
2016,09,30,10,54,11.40
2016,09,30,10,55,11.40
2016,09,30,10,56,11.40
2016,09,30,10,57,11.60
2016,09,30,10,58,11.60
2016,09,30,10,59,11.60
2016,09,30,11,00,11.60
2016,09,30,11,01,11.60
2016,09,30,11,02,11.60
2016,09,30,11,03,11.60
2016,09,30,11,04,11.60
2016,09,30,11,06,11.70
2016,09,30,11,07,11.70
2016,09,30,11,08,11.70
2016,09,30,11,09,11.70
2016,09,30,11,10,11.80
2016,09,30,11,11,11.80
2016,09,30,11,12,11.80
2016,09,30,11,13,11.80
2016,09,30,11,14,11.80
2016,09,30,11,15,11.90
2016,09,30,11,16,11.90
2016,09,30,11,17,11.90
2016,09,30,11,18,11.90
2016,09,30,11,19,11.90
2016,09,30,11,20,11.90
2016,09,30,11,21,12.00
2016,09,30,11,22,12.00
2016,09,30,11,23,12.00
2016,09,30,11,24,12.10
2016,09,30,11,25,12.10
2016,09,30,11,26,12.10
2016,09,30,11,27,12.20
2016,09,30,11,28,12.20
2016,09,30,11,29,12.30
2016,09,30,11,30,12.30
2016,09,30,11,31,12.30
2016,09,30,11,32,12.30
2016,09,30,11,33,12.30
2016,09,30,11,34,12.30
2016,09,30,11,36,12.30
2016,09,30,11,37,12.40
2016,09,30,11,38,12.40
2016,09,30,11,39,12.40
2016,09,30,11,40,12.50
2016,09,30,11,41,12.50
2016,09,30,11,42,12.60
2016,09,30,11,43,12.60
2016,09,30,11,44,12.70
2016,09,30,11,45,12.70
2016,09,30,11,46,12.70
2016,09,30,11,47,12.80
2016,09,30,11,48,12.80
2016,09,30,11,49,12.80
2016,09,30,11,50,12.80
2016,09,30,11,51,12.80
2016,09,30,11,52,12.80
2016,09,30,11,53,12.80
2016,09,30,11,54,12.80
2016,09,30,11,55,12.80
2016,09,30,11,56,12.80
2016,09,30,11,57,12.80
2016,09,30,11,58,12.80
2016,09,30,11,59,12.80
2016,09,30,12,00,12.80
2016,09,30,12,01,12.80
2016,09,30,12,02,12.80
2016,09,30,12,03,12.80
2016,09,30,12,04,12.80
2016,09,30,12,05,12.80
2016,09,30,12,06,12.90
2016,09,30,12,07,12.90
2016,09,30,12,08,12.90
2016,09,30,12,09,13.00
2016,09,30,12,10,13.00
2016,09,30,12,11,13.10
2016,09,30,12,12,13.10
2016,09,30,12,13,13.20
2016,09,30,12,14,13.20
2016,09,30,12,15,13.30
2016,09,30,12,16,13.30
2016,09,30,12,18,13.30
2016,09,30,12,19,13.40
2016,09,30,12,21,13.50
2016,09,30,12,22,13.50
2016,09,30,12,23,13.50
2016,09,30,12,24,13.60
2016,09,30,12,26,13.60
2016,09,30,12,27,13.60
2016,09,30,12,28,13.60
2016,09,30,12,29,13.60
2016,09,30,12,31,13.60
2016,09,30,12,32,13.70
2016,09,30,12,33,13.70
2016,09,30,12,34,13.70
2016,09,30,12,36,13.70
2016,09,30,12,37,13.70
2016,09,30,12,38,13.70
2016,09,30,12,39,13.70
2016,09,30,12,41,13.80
2016,09,30,12,42,13.80
2016,09,30,12,43,13.90
2016,09,30,12,44,13.90
2016,09,30,12,46,14.00
2016,09,30,12,47,14.00
2016,09,30,12,48,13.90
2016,09,30,12,49,13.90
2016,09,30,12,51,13.90
2016,09,30,12,52,13.90
2016,09,30,12,53,13.80
2016,09,30,12,54,13.80
2016,09,30,12,56,13.80
2016,09,30,12,57,13.80
2016,09,30,12,58,13.70
2016,09,30,12,59,13.70
2016,09,30,13,01,13.70
2016,09,30,13,02,13.70
2016,09,30,13,03,13.70
2016,09,30,13,04,13.70
2016,09,30,13,06,13.70
2016,09,30,13,07,13.70
2016,09,30,13,08,13.70
2016,09,30,13,09,13.70
2016,09,30,13,11,13.70
2016,09,30,13,12,13.60
2016,09,30,13,13,13.60
2016,09,30,13,14,13.50
2016,09,30,13,16,13.40
2016,09,30,13,17,13.40
2016,09,30,13,18,13.40
2016,09,30,13,19,13.30
2016,09,30,13,21,13.30
2016,09,30,13,22,13.20
2016,09,30,13,23,13.20
2016,09,30,13,24,13.10
2016,09,30,13,25,13.00
2016,09,30,13,26,12.90
2016,09,30,13,27,12.80
2016,09,30,13,28,12.80
2016,09,30,13,29,12.70
2016,09,30,13,30,12.70
2016,09,30,13,31,12.60
2016,09,30,13,32,12.60
2016,09,30,13,33,12.50
2016,09,30,13,34,12.50
2016,09,30,13,36,12.40
2016,09,30,13,37,12.30
2016,09,30,13,38,12.30
2016,09,30,13,39,12.30
2016,09,30,13,40,12.30
2016,09,30,13,41,12.30
2016,09,30,13,42,12.30
2016,09,30,13,43,12.30
2016,09,30,13,44,12.30
2016,09,30,13,45,12.20
2016,09,30,13,46,12.20
2016,09,30,13,47,12.10
2016,09,30,13,48,12.10
2016,09,30,13,49,12.00
2016,09,30,13,50,11.90
2016,09,30,13,51,11.90
2016,09,30,13,52,11.90
2016,09,30,13,53,11.80
2016,09,30,13,54,11.80
2016,09,30,13,55,11.80
2016,09,30,13,56,11.80
2016,09,30,13,57,11.80
2016,09,30,13,58,11.80
2016,09,30,13,59,11.80
2016,09,30,14,00,11.70
2016,09,30,14,01,11.70
2016,09,30,14,02,11.70
2016,09,30,14,03,11.70
2016,09,30,14,04,11.70
2016,09,30,14,05,11.70
2016,09,30,14,06,11.80
2016,09,30,14,07,11.80
2016,09,30,14,08,11.80
2016,09,30,14,09,11.80
2016,09,30,14,10,11.90
2016,09,30,14,11,12.00
2016,09,30,14,12,12.10
2016,09,30,14,13,12.10
2016,09,30,14,14,12.20
2016,09,30,14,15,12.30
2016,09,30,14,16,12.30
2016,09,30,14,17,12.30
2016,09,30,14,18,12.30
2016,09,30,14,19,12.30
2016,09,30,14,20,12.30
2016,09,30,14,21,12.30
2016,09,30,14,22,12.30
2016,09,30,14,23,12.30
2016,09,30,14,24,12.30
2016,09,30,14,25,12.30
2016,09,30,14,26,12.20
2016,09,30,14,27,12.20
2016,09,30,14,28,12.10
2016,09,30,14,29,12.10
2016,09,30,14,30,12.00
2016,09,30,14,31,12.00
2016,09,30,14,32,12.00
2016,09,30,14,33,12.00
2016,09,30,14,34,12.10
2016,09,30,14,35,12.10
2016,09,30,14,36,12.20
2016,09,30,14,37,12.30
2016,09,30,14,38,12.30
2016,09,30,14,39,12.30
2016,09,30,14,40,12.30
2016,09,30,14,41,12.40
2016,09,30,14,42,12.40
2016,09,30,14,43,12.50
2016,09,30,14,44,12.50
2016,09,30,14,45,12.60
2016,09,30,14,46,12.70
2016,09,30,14,47,12.70
2016,09,30,14,48,12.80
2016,09,30,14,49,12.80
2016,09,30,14,50,12.80
2016,09,30,14,51,12.80
2016,09,30,14,52,12.80
2016,09,30,14,53,12.80
2016,09,30,14,54,12.80
2016,09,30,14,55,12.90
2016,09,30,14,56,12.90
2016,09,30,14,57,13.00
2016,09,30,14,59,13.10
2016,09,30,15,01,13.10
2016,09,30,15,02,13.10
2016,09,30,15,03,13.10
2016,09,30,15,04,13.10
2016,09,30,15,06,13.10
2016,09,30,15,07,13.10
2016,09,30,15,26,13.30
2016,09,30,15,27,13.30
2016,09,30,15,28,13.30
2016,09,30,15,29,13.30
2016,09,30,15,30,13.40
2016,09,30,15,31,13.40
2016,09,30,15,32,13.40
2016,09,30,15,33,13.40
2016,09,30,15,34,13.40
2016,09,30,15,35,13.40
2016,09,30,15,36,13.40
2016,09,30,15,37,13.40
2016,09,30,15,38,13.50
2016,09,30,15,39,13.50
2016,09,30,15,41,13.50
2016,09,30,15,42,13.50
2016,09,30,15,43,13.50
2016,09,30,15,44,13.50
2016,09,30,15,46,13.60
2016,09,30,15,47,13.60
2016,09,30,15,48,13.60
2016,09,30,15,49,13.70
2016,09,30,15,51,13.70
2016,09,30,15,52,13.70
2016,09,30,15,53,13.70
2016,09,30,15,54,13.70
2016,09,30,15,56,13.70
2016,09,30,15,57,13.70
2016,09,30,15,58,13.70
2016,09,30,15,59,13.70
2016,09,30,16,01,13.70
2016,09,30,16,02,13.70
2016,09,30,16,03,13.70
2016,09,30,16,04,13.70
2016,09,30,16,06,13.70
2016,09,30,16,07,13.70
2016,09,30,16,08,13.70
2016,09,30,16,09,13.70
2016,09,30,16,11,13.70
2016,09,30,16,12,13.70
2016,09,30,16,13,13.70
2016,09,30,16,14,13.70
2016,09,30,16,16,13.70
2016,09,30,16,17,13.70
2016,09,30,16,18,13.70
2016,09,30,16,19,13.70
2016,09,30,16,21,13.70
2016,09,30,16,22,13.70
2016,09,30,16,23,13.70
2016,09,30,16,24,13.70
2016,09,30,16,26,13.70
2016,09,30,16,27,13.70
2016,09,30,16,28,13.70
2016,09,30,16,29,13.70
2016,09,30,16,31,13.70
2016,09,30,16,32,13.70
2016,09,30,16,33,13.70
2016,09,30,16,34,13.70
2016,09,30,16,36,13.70
2016,09,30,16,37,13.70
2016,09,30,16,38,13.70
2016,09,30,16,39,13.70
2016,09,30,16,41,13.70
2016,09,30,16,42,13.70
2016,09,30,16,43,13.70
2016,09,30,16,44,13.70
2016,09,30,16,46,13.70
2016,09,30,16,47,13.70
2016,09,30,16,48,13.70
2016,09,30,16,49,13.70
2016,09,30,16,51,13.70
2016,09,30,16,52,13.60
2016,09,30,16,53,13.60
2016,09,30,16,54,13.60
2016,09,30,16,55,13.50
2016,09,30,16,56,13.50
2016,09,30,16,57,13.50
2016,09,30,16,58,13.40
2016,09,30,16,59,13.40
2016,09,30,17,00,13.40
2016,09,30,17,01,13.40
2016,09,30,17,02,13.30
2016,09,30,17,03,13.30
2016,09,30,17,04,13.30
2016,09,30,17,06,13.30
2016,09,30,17,07,13.30
2016,09,30,17,08,13.30
2016,09,30,17,09,13.30
2016,09,30,17,10,13.30
2016,09,30,17,11,13.30
2016,09,30,17,12,13.30
2016,09,30,17,13,13.30
2016,09,30,17,14,13.30
2016,09,30,17,15,13.30
2016,09,30,17,16,13.30
2016,09,30,17,17,13.20
2016,09,30,17,18,13.20
2016,09,30,17,19,13.20
2016,09,30,17,20,13.20
2016,09,30,17,21,13.20
2016,09,30,17,22,13.10
2016,09,30,17,23,13.10
2016,09,30,17,24,13.10
2016,09,30,17,25,13.10
2016,09,30,17,26,13.10
2016,09,30,17,27,13.00
2016,09,30,17,28,13.00
2016,09,30,17,29,12.90
2016,09,30,17,30,12.90
2016,09,30,17,31,12.90
2016,09,30,17,32,12.80
2016,09,30,17,33,12.80
2016,09,30,17,34,12.80
2016,09,30,17,35,12.80
2016,09,30,17,36,12.80
2016,09,30,17,37,12.80
2016,09,30,17,38,12.80
2016,09,30,17,39,12.80
2016,09,30,17,40,12.80
2016,09,30,17,41,12.70
2016,09,30,17,42,12.70
2016,09,30,17,43,12.70
2016,09,30,17,44,12.70
2016,09,30,17,45,12.60
2016,09,30,17,46,12.60
2016,09,30,17,47,12.60
2016,09,30,17,48,12.60
2016,09,30,17,49,12.50
2016,09,30,17,50,12.50
2016,09,30,17,51,12.50
2016,09,30,17,52,12.50
2016,09,30,17,53,12.50
2016,09,30,17,54,12.50
2016,09,30,17,55,12.50
2016,09,30,17,56,12.50
2016,09,30,17,57,12.40
2016,09,30,17,58,12.40
2016,09,30,17,59,12.40
2016,09,30,18,00,12.40
2016,09,30,18,01,12.40
2016,09,30,18,02,12.40
2016,09,30,18,03,12.30
2016,09,30,18,04,12.30
2016,09,30,18,05,12.30
2016,09,30,18,06,12.30
2016,09,30,18,07,12.30
2016,09,30,18,08,12.20
2016,09,30,18,09,12.20
2016,09,30,18,10,12.10
2016,09,30,18,11,12.10
2016,09,30,18,12,12.10
2016,09,30,18,13,12.00
2016,09,30,18,14,12.00
2016,09,30,18,15,12.00
2016,09,30,18,16,11.90
2016,09,30,18,17,11.90
2016,09,30,18,18,11.90
2016,09,30,18,19,11.90
2016,09,30,18,20,11.80
2016,09,30,18,21,11.80
2016,09,30,18,22,11.80
2016,09,30,18,23,11.80
2016,09,30,18,24,11.80
2016,09,30,18,25,11.80
2016,09,30,18,26,11.80
2016,09,30,18,28,11.80
2016,09,30,18,29,11.80
2016,09,30,18,31,11.70
2016,09,30,18,32,11.70
2016,09,30,18,33,11.70
2016,09,30,18,34,11.70
2016,09,30,18,36,11.60
2016,09,30,18,37,11.60
2016,09,30,18,38,11.60
2016,09,30,18,39,11.60
2016,09,30,18,41,11.60
2016,09,30,18,42,11.60
2016,09,30,18,43,11.60
2016,09,30,18,44,11.60
2016,09,30,18,46,11.60
2016,09,30,18,47,11.60
2016,09,30,18,48,11.60
2016,09,30,18,49,11.60
2016,09,30,18,51,11.60
2016,09,30,18,52,11.60
2016,09,30,18,53,11.60
2016,09,30,18,54,11.60
2016,09,30,18,56,11.60
2016,09,30,18,57,11.60
2016,09,30,18,58,11.60
2016,09,30,18,59,11.60
2016,09,30,19,01,11.60
2016,09,30,19,02,11.60
2016,09,30,19,03,11.60
2016,09,30,19,04,11.60
2016,09,30,19,06,11.60
2016,09,30,19,07,11.60
2016,09,30,19,08,11.60
2016,09,30,19,09,11.60
2016,09,30,19,11,11.40
2016,09,30,19,12,11.40
2016,09,30,19,13,11.40
2016,09,30,19,14,11.40
2016,09,30,19,16,11.40
2016,09,30,19,17,11.40
2016,09,30,19,18,11.40
2016,09,30,19,19,11.40
2016,09,30,19,21,11.40
2016,09,30,19,22,11.40
2016,09,30,19,23,11.40
2016,09,30,19,24,11.40
2016,09,30,19,26,11.30
2016,09,30,19,27,11.30
2016,09,30,19,28,11.30
2016,09,30,19,29,11.30
2016,09,30,19,31,11.30
2016,09,30,19,32,11.30
2016,09,30,19,33,11.30
2016,09,30,19,34,11.30
2016,09,30,19,36,11.30
2016,09,30,19,37,11.30
2016,09,30,19,38,11.30
2016,09,30,19,39,11.30
2016,09,30,19,41,11.30
2016,09,30,19,42,11.40
2016,09,30,19,43,11.40
2016,09,30,19,44,11.40
2016,09,30,19,45,11.40
2016,09,30,19,46,11.40
2016,09,30,19,47,11.40
2016,09,30,19,48,11.40
2016,09,30,19,49,11.40
2016,09,30,19,50,11.40
2016,09,30,19,51,11.40
2016,09,30,19,52,11.40
2016,09,30,19,53,11.40
2016,09,30,19,54,11.40
2016,09,30,19,55,11.40
2016,09,30,19,56,11.40
2016,09,30,19,57,11.40
2016,09,30,19,58,11.40
2016,09,30,19,59,11.40
2016,09,30,20,00,11.40
2016,09,30,20,01,11.40
2016,09,30,20,02,11.40
2016,09,30,20,03,11.40
2016,09,30,20,04,11.30
2016,09,30,20,06,11.30
2016,09,30,20,07,11.30
2016,09,30,20,08,11.30
2016,09,30,20,09,11.30
2016,09,30,20,10,11.30
2016,09,30,20,11,11.20
2016,09,30,20,12,11.20
2016,09,30,20,13,11.20
2016,09,30,20,14,11.20
2016,09,30,20,15,11.20
2016,09,30,20,16,11.20
2016,09,30,20,17,11.20
2016,09,30,20,18,11.20
2016,09,30,20,19,11.10
2016,09,30,20,20,11.10
2016,09,30,20,21,11.10
2016,09,30,20,22,11.10
2016,09,30,20,23,11.10
2016,09,30,20,24,11.10
2016,09,30,20,25,10.90
2016,09,30,20,26,10.90
2016,09,30,20,27,10.90
2016,09,30,20,28,10.90
2016,09,30,20,29,10.90
2016,09,30,20,30,10.90
2016,09,30,20,31,10.90
2016,09,30,20,32,10.90
2016,09,30,20,33,10.90
2016,09,30,20,34,10.90
2016,09,30,20,35,10.90
2016,09,30,20,36,10.90
2016,09,30,20,37,10.90
2016,09,30,20,38,10.90
2016,09,30,20,39,10.90
2016,09,30,20,40,10.90
2016,09,30,20,41,10.90
2016,09,30,20,42,10.90
2016,09,30,20,43,10.90
2016,09,30,20,44,10.90
2016,09,30,20,45,10.90
2016,09,30,20,46,10.90
2016,09,30,20,47,10.90
2016,09,30,20,48,10.90
2016,09,30,20,49,10.90
2016,09,30,20,50,10.90
2016,09,30,20,51,10.90
2016,09,30,20,52,10.90
2016,09,30,20,53,10.90
2016,09,30,20,54,10.90
2016,09,30,20,55,10.90
2016,09,30,20,56,11.10
2016,09,30,20,57,11.10
2016,09,30,20,58,11.10
2016,09,30,20,59,11.10
2016,09,30,21,00,11.10
2016,09,30,21,01,11.10
2016,09,30,21,02,11.10
2016,09,30,21,03,11.10
2016,09,30,21,04,11.10
2016,09,30,21,06,11.10
2016,09,30,21,07,11.10
2016,09,30,21,08,11.10
2016,09,30,21,09,11.10
2016,09,30,21,10,11.10
2016,09,30,21,11,11.10
2016,09,30,21,13,10.90
2016,09,30,21,14,10.90
2016,09,30,21,16,10.90
2016,09,30,21,17,10.90
2016,09,30,21,18,10.90
2016,09,30,21,19,10.90
2016,09,30,21,21,10.90
2016,09,30,21,22,10.90
2016,09,30,21,23,10.90
2016,09,30,21,24,10.90
2016,09,30,21,26,10.90
2016,09,30,21,27,10.90
2016,09,30,21,28,10.90
2016,09,30,21,29,10.90
2016,09,30,21,31,10.90
2016,09,30,21,32,10.90